Location: Alma
(38.7220°N, 88.9090°W)
Time: 04:41:22
(UTC-06:00)

Vanguard 2 - Pass Details

Date: 14 November 2019
Orbit: 553 x 2938 km, 32.9° (Epoch: 11 December)

Event Time Altitude Azimuth Distance (km) Brightness Sun altitude
Rises 09:07:42 0° 230° (SW) 4,811 11.6 22.8°
Reaches altitude 10° 09:11:56 10° 220° (SW) 3,389 11.0 23.3°
Maximum altitude 09:18:29 28° 165° (SSE) 1,728 11.0 24.1°
Drops below altitude 10° 09:23:01 10° 107° (ESE) 2,291 10.9 24.6°
Sets 09:25:19 0° 94° (E) 3,029 11.2 24.9°
